DW9408 Weather Reports


Display with metric or nautical units.
time (UTC)temp
F
wind
direction
speed
MPH
gust
MPH
rain 1hr
in
rain 24hr
in
rain mn
in
humidity
%
barometer
mb
20260507052211 64 244 0.0 0.0 0.02 0.82 0.02 100 1012.5
20260507051705 64 244 0.0 0.0 0.02 0.82 0.02 100 1012.2
20260507051200 64 244 0.0 0.0 0.02 0.82 0.02 100 1012.1
20260507050654 64 243 0.0 0.0 0.02 0.82 0.02 100 1012.7
20260507050148 64 243 0.0 0.0 0.02 0.82 0.02 100 1012.3
20260507045642 64 243 0.0 0.0 0.01 0.81 0.01 100 1011.9
20260507045136 64 271 0.0 0.0 0.01 0.81 0.01 100 1012.8
20260507044630 64 271 0.0 0.0 0.00 0.80 0.00 100 1012.9
20260507044124 64 271 0.0 0.0 0.00 0.80 0.00 100 1012.6
20260507043618 64 271 0.0 0.0 0.00 0.80 0.00 100 1013.3
20260507043111 64 234 0.0 0.0 0.00 0.80 0.00 100 1012.7
20260507042838 64 234 0.0 0.0 0.00 0.80 0.00 100 1012.2
20260507042059 64 234 0.0 0.0 0.00 0.80 0.00 99 1012.3
20260507041824 64 234 0.0 0.0 0.00 0.80 0.00 100 1012.5
20260507041048 64 234 0.0 0.0 0.00 0.80 0.00 100 1012.3
20260507040541 64 234 0.0 0.0 0.00 0.80 0.00 99 1012.1
20260507040036 64 234 0.0 0.0 0.00 0.80 0.00 99 1011.9
20260507035530 64 234 0.0 0.0 0.00 0.80 0.80 99 1012.1
20260507035025 64 234 0.0 0.0 0.00 0.80 0.80 99 1012.3
20260507033526 64 234 0.0 0.0 0.00 0.80 0.80 99 1012.1
20260507033025 64 234 0.0 0.0 0.01 0.80 0.80 99 1011.9
20260507032526 64 234 0.0 0.0 0.03 0.80 0.80 99 1012.3
20260507032023 64 234 0.0 0.0 0.06 0.80 0.80 99 1012.3
20260507031523 64 234 0.0 0.0 0.09 0.80 0.80 99 1012.2
20260507031022 64 234 0.0 0.0 0.09 0.80 0.80 99 1011.8
20260507030521 64 234 0.0 0.0 0.11 0.80 0.80 99 1011.7
20260507030019 64 234 0.0 0.0 0.11 0.80 0.80 99 1011.4
20260507025517 64 234 0.0 0.0 0.11 0.80 0.80 99 1011.5
20260507025018 64 254 0.0 0.0 0.11 0.80 0.80 99 1011.4
20260507024750 65 257 1.0 4.0 0.12 0.80 0.80 99 1011.8
20260507024018 65 257 1.0 4.0 0.12 0.80 0.80 99 1011.4
20260507023517 65 296 0.0 4.0 0.12 0.80 0.80 99 1011.7
20260507023015 65 159 0.0 3.0 0.11 0.79 0.79 99 1010.2
20260507022514 65 317 0.0 0.0 0.10 0.77 0.77 99 1012.6
20260507022246 65 317 0.0 4.0 0.08 0.74 0.74 99 1014.1
20260507021509 65 265 0.0 4.0 0.06 0.71 0.72 99 1014.2
20260507021234 65 232 1.0 6.0 0.05 0.70 0.70 99 1013.6
20260507020729 65 232 1.0 6.0 0.05 0.69 0.69 99 1013.7
20260507015951 65 249 0.0 0.0 0.05 0.69 0.69 99 1013.3
20260507015444 65 249 0.0 0.0 0.08 0.69 0.69 99 1012.7
20260507014939 65 249 0.0 0.0 0.11 0.69 0.69 99 1013.0
20260507014705 65 249 0.0 2.0 0.12 0.68 0.69 99 1013.3
20260507013926 65 254 0.0 2.0 0.13 0.68 0.68 99 1013.1
20260507013424 65 282 0.0 0.0 0.13 0.68 0.68 99 1012.7
20260507012922 65 282 0.0 0.0 0.13 0.68 0.68 99 1012.3
20260507012422 65 309 0.0 0.0 0.12 0.67 0.67 99 1012.4
20260507012153 65 309 0.0 0.0 0.10 0.65 0.66 99 1012.7
20260507011422 65 310 0.0 0.0 0.12 0.65 0.65 99 1012.3
20260507010420 65 311 0.0 0.0 0.15 0.64 0.64 99 1011.9
20260507005919 66 311 0.0 0.0 0.15 0.64 0.64 99 1012.1
20260507005419 66 311 0.0 0.0 0.12 0.61 0.61 99 1012.3
20260507004919 66 310 0.0 0.0 0.09 0.58 0.58 99 1012.7
20260507004420 66 310 0.0 0.0 0.08 0.56 0.56 99 1012.8
20260507003917 66 236 0.0 0.0 0.08 0.55 0.55 99 1012.6
20260507003415 66 184 0.0 0.0 0.10 0.55 0.55 98 1011.8
20260507002916 66 184 0.0 0.0 0.12 0.55 0.55 98 1011.8
20260507002416 66 184 0.0 0.0 0.14 0.55 0.55 98 1011.8
20260507001916 66 184 0.0 0.0 0.17 0.55 0.55 98 1011.9
20260507001415 66 184 0.0 1.0 0.18 0.53 0.54 98 1012.2
20260507000915 66 178 0.0 1.0 0.23 0.51 0.52 98 1012.4
20260507000417 66 257 0.0 0.0 0.23 0.49 0.49 98 1012.5
20260506235917 66 257 0.0 0.0 0.25 0.49 0.49 98 1011.9
20260506235411 66 257 0.0 0.0 0.30 0.49 0.49 98 1011.5
20260506235140 66 257 0.0 0.0 0.31 0.49 0.49 98 1011.9
20260506234410 66 257 0.0 0.0 0.30 0.48 0.48 98 1011.9
20260506233912 66 230 0.0 0.0 0.30 0.47 0.47 97 1012.3
20260506233407 67 230 0.0 0.0 0.28 0.45 0.45 98 1012.3
20260506232905 67 230 0.0 0.0 0.27 0.43 0.43 97 1012.6
20260506232406 67 242 0.0 0.0 0.26 0.41 0.41 97 1012.7
20260506231905 67 234 0.0 4.0 0.24 0.38 0.38 97 1012.7
20260506231634 67 200 0.0 4.0 0.22 0.35 0.36 96 1012.5
20260506230902 67 285 0.0 3.0 0.16 0.28 0.29 96 1012.5
20260506230403 67 228 1.0 6.0 0.14 0.26 0.27 96 1012.3
20260506225901 67 227 1.0 11.0 0.12 0.24 0.25 95 1012.1
20260506225400 68 265 1.0 11.0 0.07 0.19 0.20 95 1011.9
20260506224901 68 211 1.0 7.0 0.06 0.18 0.18 95 1012.1
20260506224357 68 223 0.0 5.0 0.06 0.18 0.18 95 1011.9
20260506223857 69 198 0.0 0.0 0.05 0.17 0.17 94 1011.7
20260506223358 69 202 0.0 5.0 0.05 0.17 0.17 93 1011.5
20260506222857 69 201 0.0 5.0 0.04 0.16 0.16 92 1011.4
20260506222351 70 221 1.0 7.0 0.03 0.15 0.15 91 1011.5
20260506221846 71 207 1.0 7.0 0.01 0.13 0.14 89 1011.6
20260506221340 71 198 0.0 1.0 0.01 0.13 0.13 88 1011.9
20260506220834 71 220 0.0 3.0 0.00 0.12 0.12 88 1011.6
20260506220054 73 216 0.0 5.0 0.00 0.12 0.12 84 1011.4
20260506214303 74 242 0.0 7.0 0.00 0.12 0.12 81 1012.1
20260506213757 74 224 1.0 7.0 0.00 0.12 0.12 81 1011.8
20260506213253 74 193 1.0 7.0 0.00 0.12 0.12 81 1011.5
20260506212746 74 202 1.0 5.0 0.00 0.12 0.12 81 1011.5
20260506212510 74 198 1.0 5.0 0.00 0.12 0.12 81 1011.5
20260506211734 74 224 1.0 4.0 0.00 0.12 0.12 81 1011.6
20260506211508 74 213 1.0 5.0 0.00 0.12 0.12 82 1011.5
20260506210734 74 217 0.0 5.0 0.00 0.12 0.12 81 1011.5
20260506210233 74 214 0.0 4.0 0.00 0.12 0.12 81 1011.7
20260506205731 74 218 0.0 5.0 0.00 0.12 0.12 81 1011.8
20260506205230 74 243 1.0 11.0 0.00 0.12 0.12 81 1011.9
20260506204729 74 201 1.0 11.0 0.00 0.12 0.12 81 1011.9
20260506204229 74 222 3.0 14.0 0.00 0.12 0.12 81 1011.9
20260506203726 74 198 3.0 14.0 0.00 0.12 0.12 79 1011.9
20260506203226 74 175 3.0 13.0 0.00 0.12 0.12 79 1011.9
20260506202955 74 232 3.0 13.0 0.00 0.12 0.12 79 1011.9
20260506202226 75 199 2.0 14.0 0.00 0.12 0.12 79 1012.1
20260506201725 75 250 2.0 14.0 0.00 0.12 0.12 80 1012.1
20260506201226 75 193 2.0 8.0 0.00 0.12 0.12 81 1012.2
20260506200724 74 235 2.0 8.0 0.00 0.12 0.12 81 1012.1
20260506200458 73 171 3.0 13.0 0.00 0.12 0.12 82 1012.2
20260506195956 73 237 4.0 13.0 0.00 0.12 0.12 82 1012.3
20260506195228 73 213 3.0 14.0 0.00 0.12 0.12 82 1012.4
20260506194728 73 190 3.0 12.0 0.00 0.12 0.12 82 1012.5
20260506194222 73 208 3.0 12.0 0.00 0.12 0.12 82 1012.6
20260506193717 72 182 3.0 13.0 0.00 0.12 0.12 83 1012.7
20260506193441 72 250 3.0 13.0 0.00 0.12 0.12 83 1012.7
20260506192705 72 179 3.0 15.0 0.00 0.12 0.12 85 1012.7
20260506192202 72 183 3.0 15.0 0.00 0.12 0.12 84 1012.8
20260506191702 72 278 3.0 14.0 0.00 0.12 0.12 85 1012.8
20260506191201 71 181 4.0 14.0 0.00 0.12 0.12 84 1012.9
20260506190702 72 187 3.0 11.0 0.00 0.12 0.12 84 1013.0
20260506190201 72 246 3.0 11.0 0.00 0.12 0.12 84 1012.9
20260506185702 72 204 5.0 17.0 0.00 0.12 0.12 84 1012.8
20260506185200 72 246 3.0 17.0 0.00 0.12 0.12 86 1012.7
20260506184933 71 238 2.0 13.0 0.00 0.12 0.12 88 1012.8
20260506184444 70 244 3.0 13.0 0.00 0.12 0.12 88 1012.9
20260506183658 70 226 4.0 15.0 0.00 0.12 0.12 87 1012.8
20260506183431 70 355 3.0 15.0 0.00 0.12 0.12 88 1012.7
20260506182930 70 236 2.0 10.0 0.00 0.12 0.12 88 1012.8
20260506181703 68 231 1.0 7.0 0.00 0.12 0.12 91 1012.8
20260506181202 68 234 3.0 15.0 0.00 0.12 0.12 89 1012.8
20260506180658 68 207 4.0 18.0 0.00 0.12 0.12 89 1012.9
20260506180429 69 182 5.0 18.0 0.00 0.12 0.12 88 1012.8
20260506175658 69 199 4.0 11.0 0.00 0.12 0.12 88 1012.8
20260506175158 69 221 4.0 18.0 0.01 0.12 0.12 89 1012.8
20260506174657 68 177 4.0 18.0 0.02 0.12 0.12 89 1012.8
20260506174156 68 249 3.0 11.0 0.03 0.12 0.12 91 1012.5
20260506173658 67 217 4.0 11.0 0.03 0.12 0.12 91 1012.5
20260506173156 67 227 5.0 12.0 0.04 0.12 0.12 91 1012.6
20260506172658 67 209 4.0 11.0 0.05 0.12 0.12 93 1013.1
20260506172153 66 211 2.0 8.0 0.06 0.12 0.12 94 1013.4
20260506171652 65 236 0.0 4.0 0.07 0.12 0.12 95 1013.4
20260506171152 65 142 1.0 4.0 0.09 0.12 0.12 94 1012.9
20260506170653 64 171 1.0 6.0 0.09 0.12 0.12 95 1014.3
20260506170152 64 180 0.0 6.0 0.10 0.12 0.12 95 1015.0
20260506165924 64 197 0.0 2.0 0.10 0.12 0.12 95 1015.3
20260506165153 64 226 0.0 2.0 0.09 0.11 0.11 95 1015.1
20260506164653 64 355 0.0 2.0 0.10 0.10 0.11 94 1015.1
20260506164154 65 355 0.0 0.0 0.09 0.09 0.10 94 1014.8
20260506163650 65 355 0.0 0.0 0.09 0.09 0.09 94 1014.8
20260506163148 65 355 0.0 4.0 0.08 0.08 0.08 92 1014.4
20260506162649 65 355 0.0 4.0 0.07 0.07 0.07 90 1014.3
20260506162148 65 220 0.0 4.0 0.06 0.06 0.06 89 1014.7
20260506161650 65 208 1.0 6.0 0.05 0.05 0.05 88 1014.7
20260506161146 65 209 2.0 8.0 0.03 0.03 0.04 88 1014.7
20260506160648 66 194 2.0 9.0 0.03 0.03 0.03 86 1014.4
20260506160146 66 189 1.0 9.0 0.02 0.02 0.02 84 1014.7
20260506155646 67 206 0.0 7.0 0.02 0.02 0.02 83 1014.6
20260506155147 68 90 0.0 7.0 0.02 0.02 0.02 82 1014.3
20260506154918 69 89 2.0 10.0 0.00 0.00 0.00 78 1014.1
20260506154143 69 199 2.0 10.0 0.00 0.00 0.00 77 1014.3
20260506153644 69 227 2.0 8.0 0.00 0.00 0.00 78 1013.8
20260506153144 69 207 3.0 8.0 0.00 0.00 0.00 77 1013.5
20260506152643 69 236 2.0 7.0 0.00 0.00 0.00 77 1013.5
20260506152409 69 217 2.0 7.0 0.00 0.00 0.00 77 1013.5
20260506151631 69 184 2.0 9.0 0.00 0.00 0.00 78 1013.7
20260506151125 68 257 3.0 9.0 0.00 0.00 0.00 77 1013.8
20260506150618 68 184 3.0 8.0 0.00 0.00 0.00 77 1013.7
20260506150113 68 242 3.0 8.0 0.00 0.00 0.00 77 1013.7
20260506145607 68 215 4.0 12.0 0.00 0.00 0.00 78 1013.6
20260506145333 68 191 4.0 12.0 0.00 0.00 0.00 77 1013.5
20260506144826 68 190 3.0 11.0 0.00 0.00 0.00 76 1013.7
20260506144049 68 225 2.0 8.0 0.00 0.00 0.00 77 1013.6
20260506143543 68 250 2.0 7.0 0.00 0.00 0.00 77 1013.6
20260506143036 68 211 1.0 6.0 0.00 0.00 0.00 78 1013.5
20260506142529 68 221 1.0 6.0 0.00 0.00 0.00 78 1013.5
20260506142023 68 244 2.0 9.0 0.00 0.00 0.00 77 1013.2
20260506141748 67 234 3.0 9.0 0.00 0.00 0.00 78 1013.0
20260506141243 67 202 4.0 13.0 0.00 0.00 0.00 79 1013.1
20260506140505 67 226 3.0 13.0 0.00 0.00 0.00 79 1013.1
20260506135959 67 206 2.0 15.0 0.00 0.00 0.00 79 1013.1
20260506135453 67 194 3.0 15.0 0.00 0.00 0.00 79 1013.2
20260506134948 66 215 3.0 10.0 0.00 0.00 0.00 79 1013.4
20260506134440 66 211 3.0 10.0 0.00 0.00 0.00 79 1013.3
20260506133935 66 217 2.0 10.0 0.00 0.00 0.00 79 1013.3
20260506133701 66 201 3.0 11.0 0.00 0.00 0.00 80 1013.2
20260506132923 66 213 3.0 11.0 0.00 0.00 0.00 79 1013.3
20260506132416 66 201 3.0 13.0 0.00 0.00 0.00 79 1013.4
20260506131911 66 242 4.0 13.0 0.00 0.00 0.00 79 1013.2
20260506131405 66 165 3.0 9.0 0.00 0.00 0.00 80 1013.2
20260506130859 66 211 3.0 9.0 0.00 0.00 0.00 80 1013.3
20260506130353 66 229 3.0 10.0 0.00 0.00 0.00 82 1013.3
20260506125850 65 208 3.0 10.0 0.00 0.00 0.00 82 1013.1
20260506125341 65 180 1.0 7.0 0.00 0.00 0.00 83 1013.2
20260506124836 65 193 1.0 6.0 0.00 0.00 0.00 83 1012.9
20260506124328 65 199 2.0 7.0 0.00 0.00 0.00 84 1013.0
20260506123823 64 182 0.0 7.0 0.00 0.00 0.00 84 1012.9
20260506123316 64 231 1.0 5.0 0.00 0.00 0.00 85 1013.1
20260506122810 64 231 1.0 5.0 0.00 0.00 0.00 85 1012.9
20260506122306 63 227 0.0 5.0 0.00 0.00 0.00 87 1012.9
20260506121759 63 193 0.0 4.0 0.00 0.00 0.00 87 1012.7
20260506121253 63 180 0.0 0.0 0.00 0.00 0.00 89 1012.7
20260506120747 62 180 0.0 0.0 0.00 0.00 0.00 89 1012.8
20260506120241 62 180 0.0 0.0 0.00 0.00 0.00 90 1012.8
20260506115735 62 178 0.0 0.0 0.00 0.00 0.00 91 1012.8
20260506115229 61 177 0.0 1.0 0.00 0.00 0.00 92 1013.0
20260506114729 61 177 0.0 1.0 0.00 0.00 0.00 92 1013.3
20260506114229 61 177 0.0 0.0 0.00 0.00 0.00 92 1013.6
20260506113729 60 177 0.0 0.0 0.00 0.00 0.00 92 1013.8
20260506113227 60 175 0.0 0.0 0.00 0.00 0.00 92 1013.6
20260506112223 60 173 0.0 0.0 0.00 0.00 0.00 90 1013.4
20260506111725 60 173 0.0 0.0 0.00 0.00 0.00 90 1013.2
20260506111224 60 173 0.0 0.0 0.00 0.00 0.00 90 1013.1
20260506110723 60 173 0.0 0.0 0.00 0.00 0.00 90 1012.9
20260506110228 60 173 0.0 0.0 0.00 0.00 0.00 88 1012.8
20260506105955 61 173 0.0 0.0 0.00 0.00 0.00 88 1012.7
20260506105227 61 173 0.0 0.0 0.00 0.00 0.00 88 1012.8
20260506104725 61 173 0.0 0.0 0.00 0.00 0.00 88 1012.7
20260506104222 61 173 0.0 0.0 0.00 0.00 0.00 87 1012.6
20260506103723 62 173 0.0 0.0 0.00 0.00 0.00 86 1012.7
20260506103222 62 173 0.0 0.0 0.00 0.00 0.00 85 1012.6
20260506102953 62 173 0.0 0.0 0.00 0.00 0.00 84 1012.6
20260506102219 63 173 0.0 0.0 0.00 0.00 0.00 84 1012.4
20260506101720 63 182 0.0 4.0 0.00 0.00 0.00 84 1012.2
20260506101219 63 182 1.0 6.0 0.00 0.00 0.00 83 1011.9
20260506100720 63 195 1.0 6.0 0.00 0.00 0.00 83 1011.9
20260506100220 63 194 1.0 6.0 0.00 0.00 0.00 83 1011.9
20260506095721 63 182 1.0 7.0 0.00 0.00 0.00 83 1012.2
20260506095220 63 194 1.0 7.0 0.00 0.00 0.00 83 1012.2
20260506094719 63 167 0.0 4.0 0.00 0.00 0.00 83 1012.1
20260506094451 63 205 0.0 4.0 0.00 0.00 0.00 83 1012.3
20260506093720 63 205 0.0 4.0 0.00 0.00 0.00 83 1012.4
20260506093220 63 206 1.0 5.0 0.00 0.00 0.00 83 1012.2
20260506092720 63 206 1.0 7.0 0.00 0.00 0.00 83 1012.3
20260506092219 63 190 1.0 7.0 0.00 0.00 0.00 83 1012.3
20260506091721 63 222 0.0 3.0 0.00 0.00 0.00 84 1012.4
20260506091217 63 230 0.0 5.0 0.00 0.00 0.00 85 1012.3
20260506090948 62 210 1.0 5.0 0.00 0.00 0.00 85 1012.2
20260506090217 62 195 0.0 5.0 0.00 0.00 0.00 85 1012.3
20260506085721 62 199 0.0 2.0 0.00 0.00 0.00 85 1012.1
20260506084946 62 188 0.0 5.0 0.00 0.00 0.00 84 1012.5
20260506084209 62 193 0.0 0.0 0.00 0.00 0.00 84 1012.6
20260506083703 62 194 0.0 5.0 0.00 0.00 0.00 84 1012.5
20260506083427 62 194 0.0 5.0 0.00 0.00 0.00 85 1012.6
20260506082651 62 224 0.0 5.0 0.00 0.00 0.00 84 1012.5
20260506082145 62 198 0.0 3.0 0.00 0.00 0.00 85 1012.5
20260506081650 61 196 0.0 4.0 0.00 0.00 0.00 86 1012.7
20260506081412 61 180 0.0 3.0 0.00 0.00 0.00 87 1012.6
20260506080626 60 204 0.0 0.0 0.00 0.00 0.00 86 1012.7
20260506080120 61 204 0.0 4.0 0.00 0.00 0.00 86 1012.9
20260506073045 59 205 0.0 0.0 0.00 0.00 0.00 88 1012.7
20260506072539 59 205 0.0 0.0 0.00 0.00 0.00 87 1012.7
20260506072033 60 205 0.0 0.0 0.00 0.00 0.00 86 1012.7
20260506071526 60 205 0.0 0.0 0.00 0.00 0.00 86 1012.7
20260506071251 60 205 0.0 0.0 0.00 0.00 0.00 86 1012.8
20260506070746 60 205 0.0 0.0 0.00 0.00 0.00 86 1012.6
20260506062426 64 241 0.0 3.0 0.00 0.00 0.00 79 1012.8
20260506061921 64 245 0.0 5.0 0.00 0.00 0.00 79 1012.9
20260506061415 63 203 0.0 5.0 0.00 0.00 0.00 79 1012.9
20260506060909 63 229 0.0 3.0 0.00 0.00 0.00 81 1012.9
20260506060403 62 223 0.0 4.0 0.00 0.00 0.00 82 1012.7